Helicity
24 10 -63 5 64 38 -3 14 -9 53 87 19 108 142 141 93 39 20 -9 30 40 35 64 52 45 42 43 48 51 63 65 58 62 63 61 38 35 33 21 25 27 13 11 14 4 -6 -6 -6 0
21 8 -17 22 36 7 -36 -13 79 89 2 46 49 78 56 74 80 75 38 -16 -42 -10 40 48 47 57 62 63 67 78 81 85 87 92 65 47 37 29 19 13 24 9 9 13 14 3 2 14 17
0 -3 14 -49 2 15 20 77 55 22 61 160 117 115 16 17 55 31 23 30 52 64 84 81 80 72 65 57 56 76 96 104 107 113 59 46 25 8 -2 -3 -9 -6 -11 6 14 19 23 36 42
-16 20 23 52 -12 -10 26 34 122 47 92 111 82 93 49 35 34 8 53 65 72 26 70 71 77 65 73 69 67 78 94 104 119 82 47 36 10 27 -2 -6 -15 -11 -7 10 26 29 32 41 49
-7 27 64 -69 101 42 40 63 56 246 234 164 121 56 25 7 30 34 34 29 39 28 54 48 54 62 63 71 63 80 88 97 102 97 42 31 13 22 -5 -7 -5 -1 5 16 32 40 47 54 55
69 -125 43 47 131 154 8 32 104 176 191 107 44 51 6 19 19 9 -1 19 11 21 58 61 67 61 57 47 51 71 59 66 57 35 41 20 11 13 16 -1 -5 7 18 32 43 56 66 67 70
-62 7 45 4 203 87 47 48 39 73 101 68 18 -35 -30 27 11 5 -13 18 96 115 72 77 65 65 55 55 37 35 23 22 17 -11 -2 12 71 40 35 11 3 23 34 48 68 74 85 91 77
23 23 81 62 24 73 58 37 11 95 146 148 92 18 -23 40 64 89 84 43 52 48 65 80 92 91 45 25 32 20 6 -17 -15 -19 12 59 64 50 36 25 38 41 52 74 93 93 90 89 61
39 36 87 107 -28 -40 8 74 18 51 58 77 79 65 51 14 50 63 57 31 15 11 51 68 63 56 31 22 24 -3 5 -18 -16 41 70 59 73 85 74 50 53 62 84 105 113 116 117 98 57
-4 34 73 185 35 -42 -34 -17 8 3 167 403 254 105 54 14 -7 6 11 4 11 0 -3 -3 15 1 17 48 3 -17 -24 53 67 72 83 69 73 72 96 91 79 84 109 122 123 137 150 137 87
-28 -16 55 62 -52 -1 53 35 67 108 230 305 288 131 90 55 42 13 0 65 26 1 -57 -68 -36 -27 -16 -41 -52 -12 98 75 85 67 67 82 98 96 91 125 68 68 78 61 109 137 124 151 120
17 -14 -16 -18 -154 27 66 55 91 26 101 166 132 128 116 56 35 95 47 115 52 -25 -47 -78 -51 -48 -89 -94 -55 24 49 50 87 24 97 127 127 103 90 79 39 39 61 70 140 101 90 131 105
30 22 37 43 47 187 175 125 152 14 103 67 12 157 91 62 46 20 32 94 61 15 -14 -18 -28 17 -1 -57 -31 75 21 43 29 103 110 130 87 69 78 43 51 28 15 66 65 107 111 66 14
35 93 54 37 5 3 84 159 166 31 170 92 25 108 104 161 210 96 100 60 49 49 25 -8 -19 0 36 52 52 94 83 67 50 68 60 25 75 50 31 28 83 77 35 65 80 160 65 39 33
37 -38 7 -9 51 64 39 76 183 223 78 103 43 82 125 76 117 13 49 39 18 -4 94 68 8 -21 42 75 56 75 118 107 79 47 29 7 4 -19 18 17 68 37 42 119 195 -42 -88 -12 -13
-48 -1 -47 49 47 -4 11 -24 133 146 79 24 79 155 115 107 54 5 -24 42 36 2 42 2 -1 -7 4 39 47 46 54 76 42 34 45 33 36 31 52 94 108 65 134 179 0 -77 -59 0 20
-4 -40 -85 -18 1 42 17 -10 -125 34 57 84 -34 139 199 5 58 18 14 60 63 92 39 -5 -35 -4 -3 -13 24 28 28 44 36 31 18 6 18 11 42 39 119 110 49 4 -7 -18 -11 -7 36
19 -35 -20 -50 26 58 69 -11 -51 6 65 125 9 85 167 142 35 -33 -52 31 151 110 3 33 99 7 1 -19 4 19 27 51 27 30 13 3 14 37 14 32 84 30 38 18 5 -10 0 -24 -6
29 -34 -14 -5 86 16 -21 -35 13 25 78 70 113 -32 103 84 61 6 -38 42 253 128 110 147 111 19 22 -10 30 62 16 37 35 47 31 44 37 29 13 32 12 39 -12 -17 -12 1 6 13 14
147 83 84 -32 85 25 28 17 52 16 -1 57 161 199 -1 28 32 72 37 97 156 180 123 94 108 84 12 -9 -33 66 31 76 54 64 30 17 21 23 20 5 25 29 -27 -22 -27 -32 -19 10 21
187 136 40 120 125 163 41 -25 0 24 -26 -22 53 144 89 48 9 -17 169 89 70 129 106 165 135 68 36 -18 14 62 86 71 91 81 33 44 13 33 14 8 7 9 18 -10 -2 -10 19 13 22
259 86 63 310 218 126 23 -29 -17 4 -6 -45 82 70 119 149 58 -23 111 110 -5 80 100 126 153 93 2 -43 20 -12 -6 26 5 12 12 17 48 40 5 -3 -10 -11 -7 -2 -23 -11 22 29 22
4 37 54 240 186 243 77 64 -7 2 46 64 5 86 123 183 49 -3 175 135 -58 15 175 139 126 86 1 -58 -31 -22 -37 77 51 66 22 10 69 28 19 -22 36 3 10 28 -16 -7 9 3 13
10 32 6 -1 248 113 88 84 49 53 123 46 136 23 100 113 76 61 84 9 -33 -62 -51 88 130 90 20 -43 -56 -33 13 12 48 52 59 44 59 22 25 43 39 18 49 24 -26 28 -3 -8 8
51 5 -5 91 50 44 50 95 -3 17 60 72 77 -32 -29 108 76 140 159 137 50 -17 -78 31 135 76 56 2 -48 -45 -26 -39 -32 14 35 42 30 54 31 57 30 10 15 27 -14 -19 35 30 14
-5 8 32 25 20 70 41 90 42 -1 17 31 -20 -16 25 175 246 82 176 227 251 115 -84 -40 184 80 43 23 -21 -44 -30 -23 13 -11 43 55 43 29 28 38 26 2 5 1 14 7 -13 30 -7
15 53 2 23 -12 85 127 30 48 11 -41 -59 -41 -33 -26 141 114 102 79 86 124 227 126 -27 162 135 29 22 -11 -34 -16 12 6 -8 -22 42 19 45 30 68 -7 -11 -1 -7 1 9 5 3 25
17 10 32 25 17 76 203 121 56 66 -22 -14 -23 -55 73 19 -2 66 114 69 61 174 64 283 27 191 66 9 26 -32 -25 -7 -24 -43 64 97 105 28 36 86 24 -55 -50 -8 29 2 9 2 27
60 56 43 11 24 33 58 73 -6 38 31 58 120 258 303 262 52 102 70 46 74 87 273 202 88 20 125 23 76 9 -24 -34 -53 32 41 116 137 116 35 27 0 -40 -26 17 31 15 2 19 8
65 22 68 58 32 7 52 -9 -24 74 35 244 280 300 297 270 128 54 65 50 -18 51 80 259 149 -68 78 114 110 -9 -2 -1 -45 -7 11 81 159 112 56 7 22 1 -2 35 40 27 11 4 15
Wind_Speed
35 32 17 27 31 35 39 38 37 39 37 36 33 30 28 25 25 22 18 22 23 14 14 11 7 9 14 16 20 21 22 26 25 25 25 23 22 20 20 23 24 31 47 52 54 52 53 53 55
36 32 28 33 41 47 42 42 41 37 38 41 41 34 30 27 25 25 23 30 36 25 6 12 6 9 15 18 21 22 21 23 27 26 26 22 23 18 18 24 30 34 52 54 55 53 53 53 53
37 36 12 24 32 42 45 42 43 37 32 34 31 33 31 29 28 24 32 33 34 27 3 7 7 10 13 16 18 21 20 23 25 28 29 26 29 13 19 23 19 24 6 44 39 37 33 41 43
35 25 24 17 29 28 38 37 39 40 40 35 34 33 32 27 24 30 33 32 32 39 7 7 7 10 12 15 17 18 21 22 26 30 28 32 28 13 9 10 11 6 18 33 37 34 34 39 39
22 31 20 29 28 26 41 46 42 48 43 40 36 33 37 35 39 38 34 30 30 29 24 18 14 12 15 17 17 15 21 22 22 24 30 30 30 15 12 6 8 9 20 27 34 36 35 35 39
26 39 30 22 27 23 43 44 47 44 44 45 44 40 37 40 38 34 36 31 28 26 22 14 14 13 14 21 17 18 22 28 28 24 22 26 28 13 17 13 13 22 31 36 37 36 37 39 39
36 35 35 50 32 22 41 38 36 40 41 40 47 44 44 40 40 40 36 29 23 19 19 15 15 16 14 17 20 16 22 28 32 30 29 12 18 29 29 18 24 35 41 42 42 39 37 38 39
27 37 30 29 42 33 41 40 42 44 42 47 46 42 45 46 44 35 35 33 27 24 19 18 13 10 10 12 16 16 16 22 34 34 14 29 30 28 26 36 39 41 41 44 43 43 41 39 39
50 32 29 17 20 33 37 41 41 42 46 42 36 51 54 53 49 43 39 38 37 32 25 25 19 15 10 9 10 14 12 22 24 34 41 33 25 34 39 41 38 39 43 44 44 41 42 39 36
43 38 35 14 54 33 20 33 35 37 42 47 48 51 53 52 50 49 43 41 40 37 33 30 24 19 4 5 7 9 16 10 27 37 30 30 37 40 37 38 41 42 43 42 39 39 37 36 31
41 46 33 15 42 37 32 19 37 41 40 44 49 49 47 48 46 44 43 42 43 45 45 42 32 18 2 9 11 2 31 39 42 38 36 40 40 37 36 41 41 43 40 35 35 38 38 34 29
37 39 28 26 41 34 19 34 28 32 38 44 44 54 51 48 48 46 46 38 43 51 58 59 63 62 23 20 15 18 44 45 43 38 48 44 41 39 42 36 31 33 33 41 40 37 34 29 24
33 29 19 27 32 48 31 23 23 34 50 46 48 56 50 43 45 42 43 43 46 52 57 60 62 62 62 35 39 51 37 50 44 43 47 44 36 35 29 16 26 33 38 41 38 31 29 30 28
37 38 23 25 31 15 14 24 28 42 41 42 48 46 44 46 35 33 39 47 50 51 53 56 58 60 58 57 57 56 49 46 46 44 40 15 14 19 32 26 31 33 34 33 37 36 31 29 26
28 29 23 37 30 17 26 25 32 36 37 37 45 42 38 38 39 47 45 48 51 50 51 51 55 57 58 56 57 55 54 49 49 48 33 24 22 22 31 24 30 44 40 37 35 31 26 29 22
39 35 35 28 21 16 10 8 25 32 21 14 37 40 41 45 45 51 54 49 48 51 48 50 53 50 57 58 53 44 51 41 47 48 20 26 19 10 5 43 40 47 43 37 33 31 27 21 25
39 30 37 32 22 17 6 22 61 51 40 20 36 33 38 45 43 42 43 53 54 52 50 48 48 45 53 53 43 47 42 26 43 48 13 32 5 30 51 31 45 47 33 32 35 33 35 26 21
43 28 25 21 23 36 26 21 45 56 44 35 41 28 38 41 42 43 46 40 44 52 48 46 38 40 45 33 39 47 38 37 40 60 50 52 26 36 36 42 43 35 32 33 32 32 28 25 28
35 21 26 26 34 33 33 28 55 52 3 8 32 49 36 38 36 42 51 43 42 48 41 38 40 41 38 24 40 47 49 43 28 22 18 28 24 32 40 33 43 37 38 37 34 33 32 27 25
18 25 22 31 34 29 34 36 40 33 27 26 19 26 26 16 31 24 30 47 38 44 43 43 42 43 45 40 33 50 44 43 33 13 22 25 39 40 46 47 37 34 37 35 32 32 34 28 24
15 13 27 31 27 30 37 30 45 39 51 50 13 23 25 34 34 37 8 42 42 49 48 45 46 46 43 58 57 42 28 31 25 33 41 36 46 40 44 45 43 43 38 35 34 33 32 29 26
8 24 22 20 22 26 23 33 32 43 46 45 22 33 24 26 30 45 15 36 64 56 49 43 45 46 50 58 57 60 58 54 56 55 53 48 48 41 44 48 44 43 43 37 32 30 25 28 25
37 20 7 15 11 22 17 28 33 31 34 16 31 34 41 28 43 44 7 32 57 57 46 44 47 46 50 56 57 49 56 36 32 42 60 57 34 44 49 44 21 43 46 42 21 24 25 28 28
44 40 35 29 13 37 27 26 29 18 20 22 22 40 40 40 39 24 25 41 67 64 61 52 47 47 51 57 58 53 36 14 20 27 22 29 36 47 49 10 19 24 22 18 22 37 23 26 32
33 36 43 36 47 35 37 38 43 20 29 23 36 29 37 37 27 28 34 38 36 42 66 54 52 49 51 53 56 58 51 53 61 45 25 32 46 35 33 9 16 25 24 34 35 36 39 37 35
31 33 45 48 40 38 30 26 12 29 29 23 30 31 27 24 29 36 28 34 29 12 83 66 50 50 53 51 51 56 50 29 8 56 32 31 23 37 11 12 12 15 18 19 35 26 18 37 39
33 44 43 51 59 48 33 28 19 27 28 22 30 30 23 17 18 32 14 16 8 6 33 58 42 47 57 54 50 51 43 32 26 26 46 2 8 4 6 11 10 14 17 16 16 42 29 27 40
17 41 48 40 43 34 28 33 14 19 20 21 25 22 21 23 21 25 23 12 5 8 20 41 40 27 58 60 54 59 53 27 35 55 21 22 3 6 8 13 6 9 24 21 11 14 28 29 39
41 45 54 51 49 37 28 38 32 13 19 18 22 21 23 23 21 22 21 27 9 21 13 45 62 67 29 62 45 53 63 56 33 19 12 10 2 0 15 23 21 16 6 14 7 10 34 32 35
33 55 29 28 43 30 30 38 7 9 11 13 18 19 23 26 23 21 16 18 4 19 29 8 32 89 58 48 50 70 60 50 41 18 18 15 7 11 15 14 20 28 42 9 6 8 16 37 24
Wind_Direction
102 57 257 332 154 131 109 90 103 61 28 43 41 37 35 342 320 350 43 80 89 66 262 263 313 11 28 30 40 41 46 50 43 36 35 30 28 22 22 33 41 58 89 106 112 93 99 97 105
135 95 328 127 112 74 94 83 55 58 63 65 52 43 11 350 5 58 54 82 92 92 59 256 313 2 28 43 49 47 45 45 47 42 41 34 39 22 21 43 63 73 106 114 125 107 115 132 133
140 147 237 43 120 87 53 65 76 72 55 61 26 18 8 45 45 61 84 83 78 73 292 269 352 12 32 43 47 50 47 49 48 50 52 47 55 16 33 48 44 57 9 167 172 172 175 161 159
140 285 257 282 164 155 62 88 76 76 58 55 49 7 20 20 28 77 87 85 81 84 275 309 350 33 42 45 48 48 51 51 56 60 58 64 58 33 17 12 28 3 208 185 177 180 178 168 172
257 331 253 351 232 128 59 78 78 57 63 47 42 41 43 41 76 85 86 82 83 76 65 58 50 40 50 55 51 46 53 54 54 50 64 64 68 49 24 277 245 240 212 199 186 180 179 181 170
1 15 17 84 227 180 67 68 71 66 63 62 56 59 50 71 73 78 81 77 76 75 71 53 53 47 50 65 56 50 57 67 72 65 52 65 72 29 223 230 233 215 198 189 183 181 179 169 169
269 12 62 116 203 205 78 70 77 86 77 70 84 67 82 77 85 82 76 66 50 39 60 63 58 63 53 58 60 49 62 70 81 74 75 56 208 201 204 226 215 197 186 181 172 177 179 177 166
338 337 20 29 160 120 68 85 99 93 77 92 85 87 96 94 88 69 71 61 45 35 48 79 62 48 50 46 54 49 49 65 83 86 68 196 200 207 219 204 195 192 190 176 177 174 171 172 162
287 338 2 41 343 109 66 50 65 80 94 98 84 98 102 102 94 85 77 68 58 44 53 87 88 72 57 39 42 50 47 73 72 196 188 198 220 205 199 195 202 199 186 185 181 182 165 164 172
304 332 350 51 173 137 64 56 86 83 75 76 83 93 104 105 103 97 94 86 67 57 68 89 90 89 20 353 38 51 65 235 212 194 205 211 200 197 207 205 197 194 194 193 196 195 192 188 178
285 313 1 81 157 263 309 13 82 89 79 93 102 105 106 108 111 104 98 90 80 75 79 94 98 86 181 64 72 51 212 204 201 204 206 196 196 210 214 199 195 193 200 214 219 201 191 179 176
326 338 7 33 160 247 324 278 56 83 92 97 98 117 113 113 113 104 104 87 89 92 99 104 115 128 94 85 79 229 198 197 199 208 184 192 202 210 199 210 223 216 218 185 184 186 185 170 180
236 8 337 339 284 223 256 305 280 84 107 100 109 121 117 110 116 114 108 102 101 108 117 121 129 145 142 129 126 180 202 190 197 198 191 201 218 217 232 263 239 225 212 208 196 209 181 150 203
339 345 311 316 26 4 335 266 259 103 98 100 122 114 107 110 85 102 114 120 123 118 122 126 134 149 160 166 168 178 186 190 195 205 210 253 264 260 225 243 229 217 221 222 216 199 180 172 186
302 334 262 260 322 355 311 263 221 195 99 100 112 115 111 112 113 127 132 131 133 132 130 136 147 154 176 179 174 182 187 197 198 199 219 247 255 259 221 230 225 209 220 211 215 239 231 294 63
298 350 319 327 337 317 6 1 273 242 279 103 111 112 113 122 120 147 149 135 131 136 132 136 142 135 160 174 186 209 205 216 206 198 249 242 242 31 311 211 213 203 198 205 199 147 126 203 247
30 342 341 0 163 308 357 311 176 198 224 95 130 109 113 131 131 128 130 154 147 139 139 136 137 130 146 169 220 211 216 229 216 207 252 159 32 84 168 231 198 183 221 201 144 165 137 145 188
23 288 170 24 79 160 310 323 173 190 200 138 140 104 119 126 132 141 145 117 124 139 141 139 131 130 134 117 230 216 224 228 219 188 205 183 240 118 118 212 192 238 242 199 207 165 171 168 133
58 279 182 142 108 149 203 286 185 194 31 328 121 160 131 133 127 128 162 137 128 138 132 124 132 134 129 113 224 213 213 220 242 235 255 250 260 250 235 247 198 230 211 181 199 208 213 220 176
81 30 161 191 106 10 302 234 242 236 171 163 132 132 141 106 130 130 140 144 135 140 138 137 136 139 142 140 131 217 227 232 242 262 258 266 239 239 227 204 237 255 170 169 151 146 173 180 208
117 103 148 56 50 41 45 246 238 255 241 233 138 139 145 159 154 146 88 148 145 156 148 140 142 146 146 169 210 233 253 247 250 245 244 252 228 242 237 229 241 219 248 184 162 151 240 257 236
347 180 154 88 49 31 99 354 189 247 237 184 139 149 145 154 155 174 146 148 187 171 159 148 144 149 157 165 204 192 213 221 211 222 219 223 222 241 203 206 202 209 205 196 161 128 359 351 278
333 117 81 140 42 25 43 360 250 162 166 113 159 156 164 158 162 168 222 261 177 201 164 158 155 153 159 165 171 162 175 244 257 240 207 213 255 240 180 176 316 238 230 240 63 67 14 23 291
240 292 318 326 346 311 331 340 343 86 108 132 131 163 163 161 164 156 161 171 200 206 201 173 162 160 164 172 177 172 153 152 268 263 260 254 256 234 214 348 331 324 325 9 139 240 1 49 285
312 293 300 308 315 316 323 308 259 134 135 135 162 153 163 167 163 157 155 165 178 180 194 177 169 167 167 172 177 181 170 172 209 238 270 261 241 261 268 359 333 313 322 282 170 191 260 253 266
298 299 295 294 306 323 332 341 51 131 133 118 135 140 151 147 159 169 159 156 164 151 206 192 171 170 173 171 174 178 172 156 160 207 262 271 276 266 318 101 61 38 31 4 278 325 34 259 231
297 287 292 291 284 308 320 332 70 116 118 102 118 121 117 124 151 168 168 151 113 212 188 176 169 168 179 176 174 175 168 159 157 150 171 343 5 28 24 100 86 94 105 58 36 219 321 329 250
306 292 295 302 302 306 316 304 53 116 119 111 123 120 60 92 125 154 154 139 358 173 189 258 221 168 182 183 178 189 181 167 165 182 272 279 325 331 20 93 11 88 147 131 45 27 317 321 283
292 287 277 284 295 303 301 286 315 109 108 67 88 54 29 45 85 117 144 164 167 290 266 260 261 242 169 187 172 181 195 189 169 263 164 269 261 7 127 139 132 131 10 116 60 27 296 308 295
302 274 297 289 286 315 315 294 99 10 5 59 57 33 23 19 50 113 119 155 162 320 291 233 311 239 248 259 259 215 191 181 175 254 266 268 199 153 146 142 145 154 176 345 45 20 343 264 157